Regional Weather Roundup
Issued by NWS State College, PA

Home | Current Version | Previous Version | Text Only | Print | Product List | Glossary On
Versions: 1 2 3 4 5 6 7 8 9 10 11 12 13 14 15 16 17 18 19 20 21 22 23 24 25 26 27 28 29 30 31 32 33 34 35 36 37 38 39 40 41 42 43 44 45 46 47 48 49 50
000
ASUS41 KCTP 190610
RWRCTP

REGIONAL WEATHER ROUNDUP
NATIONAL WEATHER SERVICE STATE COLLEGE PA
200 AM EDT FRI SEP 19 2014

Note: "fair" indicates few or no clouds below 12,000 feet with no
significant weather and/or obstructions to visibility.

* = STATION THAT DOES NOT REPORT PRECIPITATION /E.G. RAIN...SNOW...ETC/
    THUNDER OR FOG.

PAZ002>004-007>009-013>016-020>023-029>032-190700-
WESTERN PENNSYLVANIA

CITY           SKY/WX    TMP DP  RH WIND       PRES   REMARKS
ERIE           PTCLDY    50  46  86 E5        30.21R
MEADVILLE      CLEAR     47  44  90 CALM      30.21R
FRANKLIN*      CLEAR     46  43  87 E5        30.22R
NEW CASTLE     NOT AVBL
BEAVER COUNTY  NOT AVBL
BUTLER*        CLEAR     46  45  93 CALM      30.22R
PITTSBURGH INT PTCLDY    54  49  83 NE6       30.19R
PITTSBURGH     CLEAR     53  47  79 N5        30.18R
INDIANA*       CLEAR     50  46  87 CALM      30.23R
LATROBE        CLEAR     46  46 100 MISG      30.20R
WASHINGTON CO* CLEAR     46  45  93 N3        30.19R
$$

PAZ004>006-010>012-017>019-024>028-033>037-041-042-045-046-049>053-190700-
CENTRAL PENNSYLVANIA

CITY           SKY/WX    TMP DP  RH WIND       PRES   REMARKS
BRADFORD       CLOUDY    47  44  90 CALM      30.22R
DUBOIS         CLEAR     47  45  93 NE6       30.20R
CLEARFIELD     CLEAR     48  46  93 NE5       30.21R
JOHNSTOWN      CLEAR     49  44  83 NE6       30.19R
ALTOONA        MOCLDY    50  47  89 NE5       30.19R
STATE COLLEGE  CLEAR     51  47  87 NE6       30.20R
WILLIAMSPORT   CLEAR     50  47  89 CALM      30.20R
SELINSGROVE    CLEAR     54  47  77 N5        30.20R
FT INDIANTOWN  CLEAR     56  53  88 NE5       30.17R
CAPITAL CITY   CLEAR     52  49  89 CALM      30.16R
HARRISBURG     PTCLDY    56  49  77 NW3       30.16R
YORK           CLEAR     44  42  93 CALM      30.15R
$$

PAZ038>040-043-044-047-048-054-055-060>062-067>071-190700-
EASTERN PENNSYLVANIA

CITY           SKY/WX    TMP DP  RH WIND       PRES   REMARKS
SCRANTON       CLEAR     52  46  80 N6        30.20R
MOUNT POCONO   CLEAR     48  44  86 N5        30.18R
ALLENTOWN      CLEAR     54  47  77 CALM      30.17R
QUAKERTOWN*    CLEAR     57  48  72 N8        30.17R
READING        CLEAR     55  49  80 N6        30.16R
LANCASTER      CLEAR     56  48  74 NE7       30.15R
COATESVILLE    CLEAR     57  48  72 N6        30.16R
POTTSTOWN      CLEAR     57  49  74 NE9       30.16R
BLUE BELL      CLEAR     59  50  72 CALM      30.14R
DOYLESTOWN     CLEAR     56  50  80 N8        30.15R
WILLOW GROVE   NOT AVBL
NORTH PHILA    CLEAR     61  48  62 N10       30.15R
PHILADELPHIA   PTCLDY    62  49  62 N14       30.13R
$$


USA.gov is the U.S. government's official web portal to all federal, state and local government web resources and services.